User: anonymous   Login
Location: Unspecified
(0.0000°N, 0.0000°E)
Time: 07:04:58
(UTC+00:00)
Language:

MAST - Orbit

View from above orbital plane
View from above orbital plane
View from above satellite
View from above satellite

Ground track
Ground track

The orbit data is extracted from the following two-line orbital elements,

1 31126U 07012K   18048.80788515  .00000095  00000-0  30247-4 0  9990
2 31126  98.0943 356.7400 0091104 132.8508 228.0390 14.56611585575637
Epoch (UTC): 17 February 2018 19:23:21
Eccentricity: 0.0091104
inclination: 98.0943°
perigee height: 639 km
apogee height: 768 km
right ascension of ascending node: 356.7400°
argument of perigee: 132.8508°
revolutions per day: 14.56611585
mean anomaly at epoch: 228.0390°
orbit number at epoch: 57563

The dashed part of the orbit path shows where the satellite is in the earth's shadow,  

DLR